Time,TemperatureF,DewpointF,PressureIn,WindDirection,WindDirectionDegrees,WindSpeedMPH,WindSpeedGustMPH,Humidity,HourlyPrecipIn,Conditions,Clouds,dailyrainin,SoftwareType,DateUTC
2013-12-18 00:01:00,15.6,9.4,29.25,WNW,292,0.0,0.0,76,0.00,,---,0.00,VWS V13.01,2013-12-18 06:01:00,
2013-12-18 00:06:00,15.6,9.4,29.25,WNW,292,0.0,0.0,76,0.00,,---,0.00,VWS V13.01,2013-12-18 06:06:00,
2013-12-18 00:11:00,15.6,9.4,29.25,WNW,292,0.0,0.0,76,0.00,,---,0.00,VWS V13.01,2013-12-18 06:11:00,
2013-12-18 00:16:00,15.6,9.7,29.24,WNW,292,0.0,0.0,77,0.00,,---,0.00,VWS V13.01,2013-12-18 06:16:00,
2013-12-18 00:21:00,15.4,9.2,29.24,WNW,292,0.0,0.0,76,0.00,,---,0.00,VWS V13.01,2013-12-18 06:21:00,
2013-12-18 00:26:00,15.4,9.2,29.24,WNW,292,0.0,0.0,76,0.00,,---,0.00,VWS V13.01,2013-12-18 06:26:00,
2013-12-18 00:31:00,15.2,9.0,29.24,WNW,292,0.0,0.0,76,0.00,,---,0.00,VWS V13.01,2013-12-18 06:31:00,
2013-12-18 00:36:00,15.0,8.8,29.24,WNW,292,0.0,0.0,76,0.00,,---,0.00,VWS V13.01,2013-12-18 06:36:00,
2013-12-18 00:41:00,15.0,8.8,29.24,WNW,292,0.0,0.0,76,0.00,,---,0.00,VWS V13.01,2013-12-18 06:41:00,
2013-12-18 00:46:00,14.9,8.7,29.24,WNW,292,0.0,0.0,76,0.00,,---,0.00,VWS V13.01,2013-12-18 06:46:00,
2013-12-18 00:51:00,14.7,8.5,29.24,WNW,292,0.0,0.0,76,0.00,,---,0.00,VWS V13.01,2013-12-18 06:51:00,
2013-12-18 00:56:00,14.7,8.5,29.23,WNW,292,0.0,0.0,76,0.00,,---,0.00,VWS V13.01,2013-12-18 06:56:00,
2013-12-18 01:01:00,14.7,8.8,29.23,WNW,292,0.0,0.0,77,0.00,,---,0.00,VWS V13.01,2013-12-18 07:01:00,
2013-12-18 01:06:00,14.5,8.6,29.23,WNW,292,0.0,0.0,77,0.00,,---,0.00,VWS V13.01,2013-12-18 07:06:00,
2013-12-18 01:11:00,14.3,8.4,29.22,North,0,0.0,0.0,77,0.00,,---,0.00,VWS V13.01,2013-12-18 07:11:00,
2013-12-18 01:16:00,14.3,8.4,29.22,WNW,292,0.0,0.0,77,0.00,,---,0.00,VWS V13.01,2013-12-18 07:16:00,
2013-12-18 01:21:00,14.1,8.2,29.21,North,0,0.0,0.0,77,0.00,,---,0.00,VWS V13.01,2013-12-18 07:21:00,
2013-12-18 01:26:00,14.1,8.2,29.21,WNW,292,0.0,0.0,77,0.00,,---,0.00,VWS V13.01,2013-12-18 07:26:00,
2013-12-18 01:31:00,14.1,8.2,29.21,North,0,0.0,0.0,77,0.00,,---,0.00,VWS V13.01,2013-12-18 07:31:00,
2013-12-18 01:36:00,14.1,8.2,29.21,WNW,292,0.0,0.0,77,0.00,,---,0.00,VWS V13.01,2013-12-18 07:36:00,
2013-12-18 01:41:00,14.1,8.2,29.21,WNW,292,0.0,0.0,77,0.00,,---,0.00,VWS V13.01,2013-12-18 07:41:00,
2013-12-18 01:46:00,13.8,7.9,29.21,WNW,292,0.0,0.0,77,0.00,,---,0.00,VWS V13.01,2013-12-18 07:46:00,
2013-12-18 01:51:00,13.8,7.9,29.21,WNW,292,0.0,0.0,77,0.00,,---,0.00,VWS V13.01,2013-12-18 07:51:00,
2013-12-18 01:56:00,13.8,7.9,29.21,WNW,292,0.0,0.0,77,0.00,,---,0.00,VWS V13.01,2013-12-18 07:56:00,
2013-12-18 02:01:00,13.6,7.7,29.21,WNW,292,0.0,0.0,77,0.00,,---,0.00,VWS V13.01,2013-12-18 08:01:00,
2013-12-18 02:06:00,13.6,7.7,29.20,WNW,292,0.0,0.0,77,0.00,,---,0.00,VWS V13.01,2013-12-18 08:06:00,
2013-12-18 02:11:00,13.6,7.7,29.20,WNW,292,0.0,0.0,77,0.00,,---,0.00,VWS V13.01,2013-12-18 08:11:00,
2013-12-18 02:16:00,13.2,7.3,29.20,WNW,292,0.0,0.0,77,0.00,,---,0.00,VWS V13.01,2013-12-18 08:16:00,
2013-12-18 02:21:00,13.2,7.3,29.20,WNW,292,0.0,0.0,77,0.00,,---,0.00,VWS V13.01,2013-12-18 08:21:00,
2013-12-18 02:26:00,13.2,7.3,29.20,WNW,292,0.0,0.0,77,0.00,,---,0.00,VWS V13.01,2013-12-18 08:26:00,
2013-12-18 02:31:00,13.4,7.6,29.20,WNW,292,0.0,0.0,77,0.00,,---,0.00,VWS V13.01,2013-12-18 08:31:00,
2013-12-18 02:36:00,13.6,7.7,29.20,WNW,292,0.0,0.0,77,0.00,,---,0.00,VWS V13.01,2013-12-18 08:36:00,
2013-12-18 02:41:00,13.6,7.7,29.20,WNW,292,0.0,0.0,77,0.00,,---,0.00,VWS V13.01,2013-12-18 08:41:00,
2013-12-18 02:46:00,13.6,7.7,29.20,North,0,0.0,0.0,77,0.00,,---,0.00,VWS V13.01,2013-12-18 08:46:00,
2013-12-18 02:51:00,13.6,7.7,29.19,WNW,292,0.0,0.0,77,0.00,,---,0.00,VWS V13.01,2013-12-18 08:51:00,
2013-12-18 02:56:00,13.6,7.7,29.20,WNW,292,0.0,0.0,77,0.00,,---,0.00,VWS V13.01,2013-12-18 08:56:00,
2013-12-18 03:01:00,13.6,7.7,29.19,WNW,292,0.0,0.0,77,0.00,,---,0.00,VWS V13.01,2013-12-18 09:01:00,
2013-12-18 03:06:00,13.6,7.7,29.19,WNW,292,0.0,0.0,77,0.00,,---,0.00,VWS V13.01,2013-12-18 09:06:00,
2013-12-18 03:11:00,13.6,7.7,29.19,WNW,292,0.0,0.0,77,0.00,,---,0.00,VWS V13.01,2013-12-18 09:11:00,
2013-12-18 03:16:00,13.6,7.7,29.18,WNW,292,0.0,0.0,77,0.00,,---,0.00,VWS V13.01,2013-12-18 09:16:00,
2013-12-18 03:22:00,13.6,7.7,29.18,WNW,292,0.0,0.0,77,0.00,,---,0.00,VWS V13.01,2013-12-18 09:22:00,
2013-12-18 03:27:00,13.2,7.3,29.18,WNW,292,0.0,0.0,77,0.00,,---,0.00,VWS V13.01,2013-12-18 09:27:00,
2013-12-18 03:32:00,13.2,7.3,29.18,WNW,292,0.0,0.0,77,0.00,,---,0.00,VWS V13.01,2013-12-18 09:32:00,
2013-12-18 03:37:00,13.2,7.6,29.18,WNW,292,0.0,0.0,78,0.00,,---,0.00,VWS V13.01,2013-12-18 09:37:00,
2013-12-18 03:42:00,13.2,7.6,29.18,WNW,292,0.0,0.0,78,0.00,,---,0.00,VWS V13.01,2013-12-18 09:42:00,
2013-12-18 03:47:00,13.2,7.6,29.18,WNW,292,0.0,0.0,78,0.00,,---,0.00,VWS V13.01,2013-12-18 09:47:00,
2013-12-18 03:52:00,13.1,7.5,29.18,WNW,292,0.0,0.0,78,0.00,,---,0.00,VWS V13.01,2013-12-18 09:52:00,
2013-12-18 03:57:00,13.1,7.5,29.18,WNW,292,0.0,0.0,78,0.00,,---,0.00,VWS V13.01,2013-12-18 09:57:00,
2013-12-18 04:02:00,12.9,7.3,29.18,WNW,292,0.0,0.0,78,0.00,,---,0.00,VWS V13.01,2013-12-18 10:02:00,
2013-12-18 04:07:00,12.9,7.3,29.17,WNW,292,0.0,0.0,78,0.00,,---,0.00,VWS V13.01,2013-12-18 10:07:00,
2013-12-18 04:12:00,12.7,7.2,29.16,WNW,292,0.0,0.0,78,0.00,,---,0.00,VWS V13.01,2013-12-18 10:12:00,
2013-12-18 04:17:00,12.7,7.2,29.15,WNW,292,0.0,0.0,78,0.00,,---,0.00,VWS V13.01,2013-12-18 10:17:00,
2013-12-18 04:22:00,12.7,7.2,29.15,WNW,292,0.0,0.0,78,0.00,,---,0.00,VWS V13.01,2013-12-18 10:22:00,
2013-12-18 04:27:00,12.7,7.2,29.15,WNW,292,0.0,0.0,78,0.00,,---,0.00,VWS V13.01,2013-12-18 10:27:00,
2013-12-18 04:32:00,12.7,7.2,29.14,WNW,292,0.0,0.0,78,0.00,,---,0.00,VWS V13.01,2013-12-18 10:32:00,
2013-12-18 04:37:00,12.7,7.2,29.14,West,270,0.0,0.0,78,0.00,,---,0.00,VWS V13.01,2013-12-18 10:37:00,
2013-12-18 04:42:00,12.7,7.2,29.13,SE,135,0.0,0.0,78,0.00,,---,0.00,VWS V13.01,2013-12-18 10:42:00,
2013-12-18 04:47:00,12.7,7.2,29.13,SE,135,0.0,0.0,78,0.00,,---,0.00,VWS V13.01,2013-12-18 10:47:00,
2013-12-18 04:52:00,12.7,7.2,29.13,SE,135,0.0,0.0,78,0.00,,---,0.00,VWS V13.01,2013-12-18 10:52:00,
2013-12-18 04:57:00,12.7,7.2,29.12,SE,135,0.0,0.0,78,0.00,,---,0.00,VWS V13.01,2013-12-18 10:57:00,
2013-12-18 05:02:00,12.7,7.4,29.12,SE,135,0.0,0.0,79,0.00,,---,0.00,VWS V13.01,2013-12-18 11:02:00,
2013-12-18 05:07:00,12.7,7.4,29.11,North,0,0.0,0.0,79,0.00,,---,0.00,VWS V13.01,2013-12-18 11:07:00,
2013-12-18 05:12:00,12.9,7.6,29.11,SSE,158,0.0,0.0,79,0.00,,---,0.00,VWS V13.01,2013-12-18 11:12:00,
2013-12-18 05:16:00,12.9,7.6,29.10,SE,135,0.0,0.0,79,0.00,,---,0.00,VWS V13.01,2013-12-18 11:16:00,
2013-12-18 05:22:00,13.1,7.8,29.10,SE,135,0.0,0.0,79,0.00,,---,0.00,VWS V13.01,2013-12-18 11:22:00,
2013-12-18 05:27:00,13.1,7.8,29.10,SE,135,0.0,0.0,79,0.00,,---,0.00,VWS V13.01,2013-12-18 11:27:00,
2013-12-18 05:32:00,13.1,7.8,29.11,SE,135,0.0,0.0,79,0.00,,---,0.00,VWS V13.01,2013-12-18 11:32:00,
2013-12-18 05:37:00,13.2,8.2,29.10,ESE,112,0.0,4.0,80,0.00,,---,0.00,VWS V13.01,2013-12-18 11:37:00,
2013-12-18 05:42:00,13.1,8.1,29.10,SE,135,0.0,0.0,80,0.00,,---,0.00,VWS V13.01,2013-12-18 11:42:00,
2013-12-18 05:47:00,13.1,8.1,29.10,SSE,158,0.0,0.0,80,0.00,,---,0.00,VWS V13.01,2013-12-18 11:47:00,
2013-12-18 05:52:00,13.1,8.1,29.09,SE,135,0.0,0.0,80,0.00,,---,0.00,VWS V13.01,2013-12-18 11:52:00,
2013-12-18 05:57:00,13.1,8.1,29.09,SE,135,0.0,0.0,80,0.00,,---,0.00,VWS V13.01,2013-12-18 11:57:00,
2013-12-18 06:02:00,13.1,8.1,29.08,SE,135,0.0,0.0,80,0.00,,---,0.00,VWS V13.01,2013-12-18 12:02:00,
2013-12-18 06:07:00,13.1,8.1,29.07,SE,135,0.0,0.0,80,0.00,,---,0.00,VWS V13.01,2013-12-18 12:07:00,
2013-12-18 06:12:00,13.1,8.1,29.07,SE,135,0.0,0.0,80,0.00,,---,0.00,VWS V13.01,2013-12-18 12:12:00,
2013-12-18 06:17:00,13.1,8.1,29.07,SE,135,0.0,10.2,80,0.00,,---,0.00,VWS V13.01,2013-12-18 12:17:00,
2013-12-18 06:22:00,13.2,8.2,29.06,SSE,158,0.0,0.0,80,0.00,,---,0.00,VWS V13.01,2013-12-18 12:22:00,
2013-12-18 06:27:00,13.2,8.2,29.05,SSE,158,0.0,0.0,80,0.00,,---,0.00,VWS V13.01,2013-12-18 12:27:00,
2013-12-18 06:32:00,13.6,8.9,29.05,SE,135,2.2,2.2,81,0.00,,---,0.00,VWS V13.01,2013-12-18 12:32:00,
2013-12-18 06:37:00,13.8,9.1,29.05,SE,135,3.0,4.4,81,0.00,,---,0.00,VWS V13.01,2013-12-18 12:37:00,
2013-12-18 06:42:00,13.8,9.1,29.05,SE,135,0.0,10.6,81,0.00,,---,0.00,VWS V13.01,2013-12-18 12:42:00,
2013-12-18 06:47:00,14.1,9.4,29.05,SE,135,0.0,10.2,81,0.00,,---,0.00,VWS V13.01,2013-12-18 12:47:00,
2013-12-18 06:52:00,14.1,9.4,29.05,North,0,0.0,11.0,81,0.00,,---,0.00,VWS V13.01,2013-12-18 12:52:00,
2013-12-18 06:57:00,14.3,9.6,29.05,SE,135,0.0,2.6,81,0.00,,---,0.00,VWS V13.01,2013-12-18 12:57:00,
2013-12-18 07:02:00,14.7,9.9,29.04,SE,135,0.0,0.0,81,0.00,,---,0.00,VWS V13.01,2013-12-18 13:02:00,
2013-12-18 07:07:00,14.7,9.9,29.02,SE,135,0.0,0.0,81,0.00,,---,0.00,VWS V13.01,2013-12-18 13:07:00,
2013-12-18 07:12:00,14.9,10.1,29.02,SE,135,0.0,0.0,81,0.00,,---,0.00,VWS V13.01,2013-12-18 13:12:00,
2013-12-18 07:17:00,15.0,10.2,29.02,SE,135,0.0,20.4,81,0.00,,---,0.00,VWS V13.01,2013-12-18 13:17:00,
2013-12-18 07:22:00,15.2,10.1,29.02,SE,135,0.0,11.0,80,0.00,,---,0.00,VWS V13.01,2013-12-18 13:22:00,
2013-12-18 07:27:00,15.4,10.4,29.02,SSE,158,0.0,10.2,80,0.00,,---,0.00,VWS V13.01,2013-12-18 13:27:00,
2013-12-18 07:32:00,15.6,10.5,29.01,SE,135,0.0,4.4,80,0.00,,---,0.00,VWS V13.01,2013-12-18 13:32:00,
2013-12-18 07:37:00,15.8,10.7,29.01,SE,135,0.0,18.6,80,0.00,,---,0.00,VWS V13.01,2013-12-18 13:37:00,
2013-12-18 07:42:00,16.1,11.0,29.01,SE,135,0.8,8.8,80,0.00,,---,0.00,VWS V13.01,2013-12-18 13:42:00,
2013-12-18 07:47:00,16.5,11.1,29.01,SSE,158,5.2,5.2,79,0.00,,---,0.00,VWS V13.01,2013-12-18 13:47:00,
2013-12-18 07:52:00,17.2,12.1,29.00,SSE,158,11.0,23.6,80,0.00,,---,0.00,VWS V13.01,2013-12-18 13:52:00,
2013-12-18 07:57:00,17.4,12.0,29.00,SSE,158,11.0,11.0,79,0.00,,---,0.00,VWS V13.01,2013-12-18 13:57:00,
2013-12-18 08:02:00,18.1,12.7,28.99,South,180,12.0,12.0,79,0.00,,---,0.00,VWS V13.01,2013-12-18 14:02:00,
2013-12-18 08:07:00,19.0,13.3,28.99,SE,135,7.6,7.6,78,0.00,,---,0.00,VWS V13.01,2013-12-18 14:07:00,
2013-12-18 08:12:00,19.5,13.8,28.99,SE,135,0.0,8.0,78,0.00,,---,0.00,VWS V13.01,2013-12-18 14:12:00,
2013-12-18 08:17:00,19.9,13.9,28.98,SSE,158,0.0,7.6,77,0.00,,---,0.00,VWS V13.01,2013-12-18 14:17:00,
2013-12-18 08:22:00,20.4,14.1,28.98,SSE,158,16.4,16.4,76,0.00,,---,0.00,VWS V13.01,2013-12-18 14:22:00,
2013-12-18 08:27:00,21.0,14.6,28.98,SSE,158,8.4,11.0,76,0.00,,---,0.00,VWS V13.01,2013-12-18 14:27:00,
2013-12-18 08:32:00,21.3,14.6,28.97,SSE,158,11.0,11.0,75,0.00,,---,0.00,VWS V13.01,2013-12-18 14:32:00,
2013-12-18 08:37:00,21.7,15.0,28.97,South,180,8.0,17.4,75,0.00,,---,0.00,VWS V13.01,2013-12-18 14:37:00,
2013-12-18 08:42:00,22.1,15.4,28.97,SSE,158,0.0,11.6,75,0.00,,---,0.00,VWS V13.01,2013-12-18 14:42:00,
2013-12-18 08:47:00,22.6,15.6,28.97,SSE,158,0.0,0.4,74,0.00,,---,0.00,VWS V13.01,2013-12-18 14:47:00,
2013-12-18 08:52:00,23.0,16.0,28.97,South,180,11.6,11.6,74,0.00,,---,0.00,VWS V13.01,2013-12-18 14:52:00,
2013-12-18 08:57:00,23.5,16.5,28.97,SSE,158,0.0,0.4,74,0.00,,---,0.00,VWS V13.01,2013-12-18 14:57:00,
2013-12-18 09:02:00,23.7,16.3,28.96,South,180,12.0,15.2,73,0.00,,---,0.00,VWS V13.01,2013-12-18 15:02:00,
2013-12-18 09:07:00,24.4,17.0,28.96,SSE,158,3.0,3.0,73,0.00,,---,0.00,VWS V13.01,2013-12-18 15:07:00,
2013-12-18 09:12:00,24.6,17.2,28.96,SE,135,0.0,0.0,73,0.00,,---,0.00,VWS V13.01,2013-12-18 15:12:00,
2013-12-18 09:17:00,24.9,17.2,28.96,SSE,158,0.0,11.0,72,0.00,,---,0.00,VWS V13.01,2013-12-18 15:17:00,
2013-12-18 09:22:00,24.9,17.2,28.96,SW,225,12.8,13.4,72,0.00,,---,0.00,VWS V13.01,2013-12-18 15:22:00,
2013-12-18 09:27:00,25.3,17.5,28.95,SSE,158,8.4,17.4,72,0.00,,---,0.00,VWS V13.01,2013-12-18 15:27:00,
2013-12-18 09:32:00,25.5,17.8,28.95,SSE,158,10.6,10.6,72,0.00,,---,0.00,VWS V13.01,2013-12-18 15:32:00,
2013-12-18 09:37:00,26.0,18.2,28.95,SSE,158,0.0,8.4,72,0.00,,---,0.00,VWS V13.01,2013-12-18 15:37:00,
2013-12-18 09:42:00,26.4,18.6,28.95,SSE,158,0.4,0.4,72,0.00,,---,0.00,VWS V13.01,2013-12-18 15:42:00,
2013-12-18 09:47:00,26.7,18.9,28.95,SE,135,0.0,10.6,72,0.00,,---,0.00,VWS V13.01,2013-12-18 15:47:00,
2013-12-18 09:52:00,27.1,19.0,28.95,SSE,158,11.6,11.6,71,0.00,,---,0.00,VWS V13.01,2013-12-18 15:52:00,
2013-12-18 09:57:00,27.5,19.4,28.95,South,180,15.6,25.4,71,0.00,,---,0.00,VWS V13.01,2013-12-18 15:57:00,
2013-12-18 10:02:00,27.6,19.4,28.95,SSW,202,15.6,15.6,71,0.00,,---,0.00,VWS V13.01,2013-12-18 16:02:00,
2013-12-18 10:07:00,28.0,19.5,28.94,SE,135,12.0,12.0,70,0.00,,---,0.00,VWS V13.01,2013-12-18 16:07:00,
2013-12-18 10:12:00,28.2,19.7,28.94,SSE,158,4.4,4.4,70,0.00,,---,0.00,VWS V13.01,2013-12-18 16:12:00,
2013-12-18 10:17:00,28.2,19.7,28.93,SSE,158,8.4,8.4,70,0.00,,---,0.00,VWS V13.01,2013-12-18 16:17:00,
2013-12-18 10:22:00,28.2,19.7,28.93,SE,135,14.6,14.6,70,0.00,,---,0.00,VWS V13.01,2013-12-18 16:22:00,
2013-12-18 10:27:00,28.5,20.0,28.93,South,180,19.6,19.6,70,0.00,,---,0.00,VWS V13.01,2013-12-18 16:27:00,
2013-12-18 10:32:00,28.5,20.0,28.93,SW,225,21.4,21.4,70,0.00,,---,0.00,VWS V13.01,2013-12-18 16:32:00,
2013-12-18 10:37:00,28.7,20.2,28.93,South,180,4.4,12.8,70,0.00,,---,0.00,VWS V13.01,2013-12-18 16:37:00,
2013-12-18 10:42:00,28.9,20.4,28.92,South,180,20.0,20.0,70,0.00,,---,0.00,VWS V13.01,2013-12-18 16:42:00,
2013-12-18 10:47:00,29.1,20.5,28.92,SSE,158,0.0,0.0,70,0.00,,---,0.00,VWS V13.01,2013-12-18 16:47:00,
2013-12-18 10:52:00,29.3,20.7,28.92,SSE,158,5.2,23.6,70,0.00,,---,0.00,VWS V13.01,2013-12-18 16:52:00,
2013-12-18 10:58:00,29.8,21.2,28.92,SSE,158,0.0,11.0,70,0.00,,---,0.00,VWS V13.01,2013-12-18 16:58:00,
2013-12-18 11:03:00,30.0,21.4,28.91,SSW,202,19.2,19.2,70,0.00,,---,0.00,VWS V13.01,2013-12-18 17:03:00,
2013-12-18 11:08:00,30.0,21.4,28.91,South,180,2.2,23.6,70,0.00,,---,0.00,VWS V13.01,2013-12-18 17:08:00,
2013-12-18 11:14:00,30.5,21.9,28.92,SSE,158,6.6,10.2,70,0.00,,---,0.00,VWS V13.01,2013-12-18 17:14:00,
2013-12-18 11:19:00,30.7,22.1,28.90,SE,135,0.0,0.0,70,0.00,,---,0.00,VWS V13.01,2013-12-18 17:19:00,
2013-12-18 11:24:00,31.1,22.5,28.90,SE,135,0.0,0.0,70,0.00,,---,0.00,VWS V13.01,2013-12-18 17:24:00,
2013-12-18 11:29:00,31.6,23.0,28.89,South,180,9.2,9.2,70,0.00,,---,0.00,VWS V13.01,2013-12-18 17:29:00,
2013-12-18 11:34:00,31.8,23.1,28.90,South,180,0.0,20.4,70,0.00,,---,0.00,VWS V13.01,2013-12-18 17:34:00,
2013-12-18 11:39:00,32.1,23.4,28.89,SW,225,0.0,0.0,70,0.00,,---,0.00,VWS V13.01,2013-12-18 17:39:00,
2013-12-18 11:44:00,32.5,23.8,28.89,South,180,6.6,6.6,70,0.00,,---,0.00,VWS V13.01,2013-12-18 17:44:00,
2013-12-18 11:49:00,33.0,24.3,28.89,SSE,158,0.0,0.0,70,0.00,,---,0.00,VWS V13.01,2013-12-18 17:49:00,
2013-12-18 11:54:00,33.6,24.9,28.89,South,180,1.6,4.4,70,0.00,,---,0.00,VWS V13.01,2013-12-18 17:54:00,
2013-12-18 11:59:00,33.9,25.2,28.88,South,180,0.0,18.2,70,0.00,,---,0.00,VWS V13.01,2013-12-18 17:59:00,
2013-12-18 12:04:00,34.3,25.5,28.87,SSE,158,0.0,9.2,70,0.00,,---,0.00,VWS V13.01,2013-12-18 18:04:00,
2013-12-18 12:10:00,34.7,25.9,28.87,SSW,202,7.6,7.6,70,0.00,,---,0.00,VWS V13.01,2013-12-18 18:10:00,
2013-12-18 12:15:00,35.2,26.1,28.87,SSE,158,0.0,20.0,69,0.00,,---,0.00,VWS V13.01,2013-12-18 18:15:00,
2013-12-18 12:20:00,35.4,26.6,28.87,South,180,8.8,9.2,70,0.00,,---,0.00,VWS V13.01,2013-12-18 18:20:00,
2013-12-18 12:25:00,35.7,26.9,28.87,SW,225,13.4,21.4,70,0.00,,---,0.00,VWS V13.01,2013-12-18 18:25:00,
2013-12-18 12:30:00,36.1,27.3,28.87,SSW,202,0.0,0.0,70,0.00,,---,0.00,VWS V13.01,2013-12-18 18:30:00,
2013-12-18 12:35:00,36.5,27.3,28.86,SSW,202,4.8,4.8,69,0.00,,---,0.00,VWS V13.01,2013-12-18 18:35:00,
2013-12-18 12:40:00,36.8,27.6,28.86,SSE,158,18.2,18.2,69,0.00,,---,0.00,VWS V13.01,2013-12-18 18:40:00,
2013-12-18 12:45:00,37.2,28.0,28.87,SSW,202,0.0,8.0,69,0.00,,---,0.00,VWS V13.01,2013-12-18 18:45:00,
2013-12-18 12:50:00,37.7,28.5,28.86,SSW,202,0.0,0.0,69,0.00,,---,0.00,VWS V13.01,2013-12-18 18:50:00,
2013-12-18 12:56:00,38.1,28.8,28.85,SSW,202,15.2,15.2,69,0.00,,---,0.00,VWS V13.01,2013-12-18 18:56:00,
2013-12-18 13:01:00,38.4,28.8,28.85,SSE,158,1.6,16.4,68,0.00,,---,0.00,VWS V13.01,2013-12-18 19:01:00,
2013-12-18 13:06:00,38.4,28.8,28.85,South,180,0.0,12.0,68,0.00,,---,0.00,VWS V13.01,2013-12-18 19:06:00,
2013-12-18 13:11:00,38.6,29.0,28.84,SSW,202,13.8,13.8,68,0.00,,---,0.00,VWS V13.01,2013-12-18 19:11:00,
2013-12-18 13:16:00,38.8,29.2,28.85,South,180,0.0,16.4,68,0.00,,---,0.00,VWS V13.01,2013-12-18 19:16:00,
2013-12-18 13:21:00,39.0,29.4,28.84,SSW,202,17.0,17.0,68,0.00,,---,0.00,VWS V13.01,2013-12-18 19:21:00,
2013-12-18 13:26:00,39.3,29.6,28.85,SSW,202,0.0,6.2,68,0.00,,---,0.00,VWS V13.01,2013-12-18 19:26:00,
2013-12-18 13:31:00,39.5,29.8,28.84,SSE,158,16.0,16.0,68,0.00,,---,0.00,VWS V13.01,2013-12-18 19:31:00,
2013-12-18 13:36:00,39.9,29.9,28.85,SSW,202,0.0,0.0,67,0.00,,---,0.00,VWS V13.01,2013-12-18 19:36:00,
2013-12-18 13:41:00,40.1,30.0,28.85,SSE,158,0.0,0.0,67,0.02,,---,0.02,VWS V13.01,2013-12-18 19:41:00,
2013-12-18 13:46:00,40.1,30.0,28.84,South,180,0.0,7.6,67,0.02,,---,0.02,VWS V13.01,2013-12-18 19:46:00,
2013-12-18 13:51:00,40.2,30.1,28.84,SW,225,0.0,0.0,67,0.02,,---,0.02,VWS V13.01,2013-12-18 19:51:00,
2013-12-18 13:56:00,40.2,30.1,28.84,SSW,202,5.8,5.8,67,0.02,,---,0.02,VWS V13.01,2013-12-18 19:56:00,
2013-12-18 14:01:00,40.6,30.5,28.85,South,180,0.0,0.0,67,0.04,,---,0.04,VWS V13.01,2013-12-18 20:01:00,
2013-12-18 14:06:00,40.6,30.5,28.85,SSW,202,0.0,0.0,67,0.04,,---,0.04,VWS V13.01,2013-12-18 20:06:00,
2013-12-18 14:11:00,40.8,30.7,28.84,SSW,202,5.8,6.2,67,0.04,,---,0.04,VWS V13.01,2013-12-18 20:11:00,
2013-12-18 14:16:00,40.8,30.7,28.85,South,180,0.0,0.0,67,0.04,,---,0.04,VWS V13.01,2013-12-18 20:16:00,
2013-12-18 14:21:00,40.8,30.7,28.85,SSW,202,0.0,0.0,67,0.04,,---,0.04,VWS V13.01,2013-12-18 20:21:00,
2013-12-18 14:26:00,40.8,30.7,28.85,South,180,0.0,0.0,67,0.04,,---,0.04,VWS V13.01,2013-12-18 20:26:00,
2013-12-18 14:31:00,40.8,30.7,28.85,SW,225,0.0,0.0,67,0.04,,---,0.04,VWS V13.01,2013-12-18 20:31:00,
2013-12-18 14:36:00,40.8,30.7,28.85,SW,225,2.2,2.2,67,0.02,,---,0.04,VWS V13.01,2013-12-18 20:36:00,
2013-12-18 14:41:00,40.6,30.5,28.85,SSW,202,0.0,3.0,67,0.02,,---,0.04,VWS V13.01,2013-12-18 20:41:00,
2013-12-18 14:46:00,40.6,30.9,28.86,South,180,0.0,0.0,68,0.02,,---,0.04,VWS V13.01,2013-12-18 20:46:00,
2013-12-18 14:51:00,40.4,30.7,28.85,SSW,202,0.0,3.0,68,0.02,,---,0.04,VWS V13.01,2013-12-18 20:51:00,
2013-12-18 14:56:00,40.2,30.5,28.85,South,180,0.0,4.8,68,0.00,,---,0.04,VWS V13.01,2013-12-18 20:56:00,
2013-12-18 15:01:00,40.1,30.4,28.85,SSW,202,0.0,0.0,68,0.00,,---,0.04,VWS V13.01,2013-12-18 21:01:00,
2013-12-18 15:06:00,40.1,30.4,28.85,SSW,202,13.4,13.4,68,0.00,,---,0.04,VWS V13.01,2013-12-18 21:06:00,
2013-12-18 15:11:00,39.9,30.6,28.85,South,180,0.0,5.2,69,0.00,,---,0.04,VWS V13.01,2013-12-18 21:11:00,
2013-12-18 15:16:00,39.9,30.6,28.86,South,180,0.0,0.0,69,0.00,,---,0.04,VWS V13.01,2013-12-18 21:16:00,
2013-12-18 15:21:00,39.9,30.6,28.85,SSW,202,8.8,8.8,69,0.00,,---,0.04,VWS V13.01,2013-12-18 21:21:00,
2013-12-18 15:26:00,39.9,30.9,28.85,SW,225,0.0,0.0,70,0.00,,---,0.04,VWS V13.01,2013-12-18 21:26:00,
2013-12-18 15:31:00,39.7,30.7,28.85,SW,225,0.0,0.0,70,0.00,,---,0.04,VWS V13.01,2013-12-18 21:31:00,
2013-12-18 15:36:00,39.7,30.7,28.86,South,180,0.0,6.6,70,0.00,,---,0.04,VWS V13.01,2013-12-18 21:36:00,
2013-12-18 15:41:00,39.5,30.5,28.85,SSW,202,0.0,10.6,70,0.00,,---,0.04,VWS V13.01,2013-12-18 21:41:00,
2013-12-18 15:46:00,39.3,30.4,28.85,SSW,202,0.0,0.0,70,0.00,,---,0.04,VWS V13.01,2013-12-18 21:46:00,
2013-12-18 15:51:00,39.3,30.4,28.85,SSW,202,0.0,0.0,70,0.00,,---,0.04,VWS V13.01,2013-12-18 21:51:00,
2013-12-18 15:56:00,39.0,30.1,28.86,SSW,202,0.0,0.0,70,0.00,,---,0.04,VWS V13.01,2013-12-18 21:56:00,
2013-12-18 16:01:00,38.8,29.9,28.86,SSW,202,0.0,0.0,70,0.00,,---,0.04,VWS V13.01,2013-12-18 22:01:00,
2013-12-18 16:06:00,38.3,29.4,28.86,SSW,202,0.0,0.0,70,0.00,,---,0.04,VWS V13.01,2013-12-18 22:06:00,
2013-12-18 16:11:00,37.9,29.4,28.85,SSW,202,0.0,0.0,71,0.00,,---,0.04,VWS V13.01,2013-12-18 22:11:00,
2013-12-18 16:16:00,37.5,29.0,28.86,SSW,202,0.0,0.0,71,0.00,,---,0.04,VWS V13.01,2013-12-18 22:16:00,
2013-12-18 16:21:00,37.2,28.7,28.86,SSW,202,0.0,0.0,71,0.00,,---,0.04,VWS V13.01,2013-12-18 22:21:00,
2013-12-18 16:26:00,36.8,28.6,28.85,SSW,202,0.0,0.0,72,0.00,,---,0.04,VWS V13.01,2013-12-18 22:26:00,
2013-12-18 16:31:00,36.5,28.4,28.85,SSW,202,0.0,0.0,72,0.00,,---,0.04,VWS V13.01,2013-12-18 22:31:00,
2013-12-18 16:36:00,36.1,28.0,28.85,SSW,202,0.0,0.0,72,0.00,,---,0.04,VWS V13.01,2013-12-18 22:36:00,
2013-12-18 16:41:00,35.7,27.9,28.85,SSW,202,0.0,0.0,73,0.00,,---,0.04,VWS V13.01,2013-12-18 22:41:00,
2013-12-18 16:46:00,35.6,27.8,28.86,SSW,202,0.0,0.0,73,0.00,,---,0.04,VWS V13.01,2013-12-18 22:46:00,
2013-12-18 16:51:00,35.4,28.0,28.85,SSW,202,0.0,0.0,74,0.00,,---,0.04,VWS V13.01,2013-12-18 22:51:00,
2013-12-18 16:56:00,35.2,27.8,28.85,SSW,202,0.0,0.0,74,0.00,,---,0.04,VWS V13.01,2013-12-18 22:56:00,
2013-12-18 17:01:00,34.8,27.4,28.85,SSW,202,0.0,0.0,74,0.00,,---,0.04,VWS V13.01,2013-12-18 23:01:00,
2013-12-18 17:06:00,34.7,27.3,28.85,SSW,202,0.0,0.0,74,0.00,,---,0.04,VWS V13.01,2013-12-18 23:06:00,
2013-12-18 17:11:00,34.3,27.2,28.85,SSW,202,0.0,0.0,75,0.00,,---,0.04,VWS V13.01,2013-12-18 23:11:00,
2013-12-18 17:16:00,34.3,27.2,28.85,SSW,202,0.0,0.0,75,0.00,,---,0.04,VWS V13.01,2013-12-18 23:16:00,
2013-12-18 17:21:00,34.3,27.2,28.85,SSW,202,0.0,0.0,75,0.00,,---,0.04,VWS V13.01,2013-12-18 23:21:00,
2013-12-18 17:26:00,34.1,27.3,28.86,SSW,202,0.0,0.0,76,0.00,,---,0.04,VWS V13.01,2013-12-18 23:26:00,
2013-12-18 17:31:00,33.9,27.1,28.85,North,0,0.0,0.0,76,0.00,,---,0.04,VWS V13.01,2013-12-18 23:31:00,
2013-12-18 17:36:00,33.8,27.0,28.86,SSW,202,5.2,5.2,76,0.00,,---,0.04,VWS V13.01,2013-12-18 23:36:00,
2013-12-18 17:41:00,33.6,26.9,28.86,SSW,202,0.0,0.0,76,0.00,,---,0.04,VWS V13.01,2013-12-18 23:41:00,
2013-12-18 17:46:00,33.6,26.9,28.86,SSW,202,0.0,0.0,76,0.00,,---,0.04,VWS V13.01,2013-12-18 23:46:00,
2013-12-18 17:51:00,33.6,27.2,28.86,SSW,202,0.0,0.0,77,0.00,,---,0.04,VWS V13.01,2013-12-18 23:51:00,
2013-12-18 17:56:00,33.4,27.0,28.86,SSW,202,0.0,0.0,77,0.00,,---,0.04,VWS V13.01,2013-12-18 23:56:00,
2013-12-18 18:01:00,33.4,27.3,28.87,SSW,202,0.0,0.0,78,0.00,,---,0.04,VWS V13.01,2013-12-19 00:01:00,
2013-12-18 18:06:00,33.2,27.1,28.86,SSW,202,0.0,0.0,78,0.00,,---,0.04,VWS V13.01,2013-12-19 00:06:00,
2013-12-18 18:11:00,33.2,27.1,28.86,SSW,202,0.0,0.0,78,0.00,,---,0.04,VWS V13.01,2013-12-19 00:11:00,
2013-12-18 18:16:00,33.2,27.1,28.86,SSW,202,0.0,0.0,78,0.00,,---,0.04,VWS V13.01,2013-12-19 00:16:00,
2013-12-18 18:21:00,33.0,26.9,28.86,SSW,202,0.0,0.0,78,0.00,,---,0.04,VWS V13.01,2013-12-19 00:21:00,
2013-12-18 18:26:00,33.0,27.2,28.86,SSW,202,0.0,0.0,79,0.00,,---,0.04,VWS V13.01,2013-12-19 00:26:00,
2013-12-18 18:31:00,33.0,27.2,28.86,SSW,202,0.0,0.0,79,0.00,,---,0.04,VWS V13.01,2013-12-19 00:31:00,
2013-12-18 18:36:00,33.0,27.2,28.86,SSW,202,0.0,0.0,79,0.00,,---,0.04,VWS V13.01,2013-12-19 00:36:00,
2013-12-18 18:41:00,32.9,27.1,28.86,North,0,0.0,0.0,79,0.00,,---,0.04,VWS V13.01,2013-12-19 00:41:00,
2013-12-18 18:46:00,32.9,27.1,28.86,SSW,202,0.0,0.0,79,0.00,,---,0.04,VWS V13.01,2013-12-19 00:46:00,
2013-12-18 18:51:00,32.9,27.1,28.86,SSW,202,0.0,0.0,79,0.00,,---,0.04,VWS V13.01,2013-12-19 00:51:00,
2013-12-18 18:56:00,32.9,27.1,28.86,SSW,202,0.0,0.0,79,0.00,,---,0.04,VWS V13.01,2013-12-19 00:56:00,
2013-12-18 19:01:00,32.7,26.9,28.86,SSW,202,0.0,0.0,79,0.00,,---,0.04,VWS V13.01,2013-12-19 01:01:00,
2013-12-18 19:06:00,32.7,26.9,28.86,SSW,202,0.0,0.0,79,0.00,,---,0.04,VWS V13.01,2013-12-19 01:06:00,
2013-12-18 19:11:00,32.7,26.9,28.86,SSW,202,0.0,0.0,79,0.00,,---,0.04,VWS V13.01,2013-12-19 01:11:00,
2013-12-18 19:16:00,32.5,26.7,28.86,SSW,202,0.0,0.0,79,0.00,,---,0.04,VWS V13.01,2013-12-19 01:16:00,
2013-12-18 19:21:00,32.5,26.7,28.86,SSW,202,0.0,0.0,79,0.00,,---,0.04,VWS V13.01,2013-12-19 01:21:00,
2013-12-18 19:26:00,32.5,26.7,28.86,SSW,202,0.0,0.0,79,0.00,,---,0.04,VWS V13.01,2013-12-19 01:26:00,
2013-12-18 19:31:00,32.3,26.5,28.87,SSW,202,0.0,0.0,79,0.00,,---,0.04,VWS V13.01,2013-12-19 01:31:00,
2013-12-18 19:36:00,32.3,26.5,28.86,SSW,202,0.0,0.0,79,0.00,,---,0.04,VWS V13.01,2013-12-19 01:36:00,
2013-12-18 19:41:00,32.3,26.5,28.86,SSW,202,0.0,0.0,79,0.00,,---,0.04,VWS V13.01,2013-12-19 01:41:00,
2013-12-18 19:46:00,32.1,26.3,28.87,SSW,202,0.0,0.0,79,0.00,,---,0.04,VWS V13.01,2013-12-19 01:46:00,
2013-12-18 19:51:00,32.1,26.3,28.87,SSW,202,0.0,0.0,79,0.00,,---,0.04,VWS V13.01,2013-12-19 01:51:00,
2013-12-18 19:56:00,32.1,26.3,28.87,SSW,202,0.0,0.0,79,0.00,,---,0.04,VWS V13.01,2013-12-19 01:56:00,
2013-12-18 20:01:00,32.1,26.6,28.86,SSW,202,0.0,0.0,80,0.00,,---,0.04,VWS V13.01,2013-12-19 02:01:00,
2013-12-18 20:06:00,32.1,26.6,28.87,SSW,202,0.0,0.0,80,0.00,,---,0.04,VWS V13.01,2013-12-19 02:06:00,
2013-12-18 20:11:00,32.1,26.6,28.88,SSW,202,0.0,0.0,80,0.00,,---,0.04,VWS V13.01,2013-12-19 02:11:00,
2013-12-18 20:16:00,32.1,26.6,28.88,SSW,202,0.0,0.0,80,0.00,,---,0.04,VWS V13.01,2013-12-19 02:16:00,
2013-12-18 20:21:00,32.1,26.6,28.88,SSW,202,0.0,0.0,80,0.00,,---,0.04,VWS V13.01,2013-12-19 02:21:00,
2013-12-18 20:26:00,32.1,26.6,28.87,SSW,202,0.0,0.0,80,0.00,,---,0.04,VWS V13.01,2013-12-19 02:26:00,
2013-12-18 20:31:00,32.1,26.6,28.88,SSW,202,0.0,0.0,80,0.00,,---,0.04,VWS V13.01,2013-12-19 02:31:00,
2013-12-18 20:36:00,32.3,26.8,28.88,North,0,0.0,0.0,80,0.00,,---,0.04,VWS V13.01,2013-12-19 02:36:00,
2013-12-18 20:41:00,32.1,26.6,28.88,SSW,202,0.0,0.0,80,0.00,,---,0.04,VWS V13.01,2013-12-19 02:41:00,
2013-12-18 20:46:00,32.1,26.6,28.88,SSW,202,0.0,0.0,80,0.00,,---,0.04,VWS V13.01,2013-12-19 02:46:00,
2013-12-18 20:51:00,32.1,26.6,28.88,SSW,202,0.0,0.0,80,0.00,,---,0.04,VWS V13.01,2013-12-19 02:51:00,
2013-12-18 20:56:00,32.1,26.6,28.89,SSW,202,0.0,0.0,80,0.00,,---,0.04,VWS V13.01,2013-12-19 02:56:00,
2013-12-18 21:01:00,32.0,26.5,28.89,SSW,202,0.0,0.0,80,0.00,,---,0.04,VWS V13.01,2013-12-19 03:01:00,
2013-12-18 21:06:00,31.8,26.6,28.88,SSW,202,0.0,0.0,81,0.00,,---,0.04,VWS V13.01,2013-12-19 03:06:00,
2013-12-18 21:11:00,31.8,26.4,28.88,SSW,202,0.0,0.0,80,0.00,,---,0.04,VWS V13.01,2013-12-19 03:11:00,
2013-12-18 21:16:00,31.6,26.1,28.89,SSW,202,0.0,0.0,80,0.00,,---,0.04,VWS V13.01,2013-12-19 03:16:00,
2013-12-18 21:21:00,31.6,26.1,28.89,SSW,202,0.0,0.0,80,0.00,,---,0.04,VWS V13.01,2013-12-19 03:21:00,
2013-12-18 21:26:00,31.4,26.0,28.89,SSW,202,0.0,0.0,80,0.00,,---,0.04,VWS V13.01,2013-12-19 03:26:00,
2013-12-18 21:31:00,31.2,26.1,28.89,SSW,202,0.0,0.0,81,0.00,,---,0.04,VWS V13.01,2013-12-19 03:31:00,
2013-12-18 21:36:00,31.2,26.1,28.89,SSW,202,0.0,0.0,81,0.00,,---,0.04,VWS V13.01,2013-12-19 03:36:00,
2013-12-18 21:41:00,31.2,26.1,28.89,SSW,202,0.0,0.0,81,0.00,,---,0.04,VWS V13.01,2013-12-19 03:41:00,
2013-12-18 21:46:00,31.2,26.1,28.89,SSW,202,0.0,0.0,81,0.00,,---,0.04,VWS V13.01,2013-12-19 03:46:00,
2013-12-18 21:51:00,31.1,26.0,28.90,SSW,202,0.0,0.0,81,0.00,,---,0.04,VWS V13.01,2013-12-19 03:51:00,
2013-12-18 21:56:00,31.1,26.0,28.89,SSW,202,0.0,0.0,81,0.00,,---,0.04,VWS V13.01,2013-12-19 03:56:00,
2013-12-18 22:02:00,30.9,25.8,28.89,SSW,202,0.0,0.0,81,0.00,,---,0.04,VWS V13.01,2013-12-19 04:02:00,
2013-12-18 22:07:00,30.9,25.8,28.90,SSW,202,0.0,0.0,81,0.00,,---,0.04,VWS V13.01,2013-12-19 04:07:00,
2013-12-18 22:12:00,30.9,25.8,28.89,SSW,202,0.0,0.0,81,0.00,,---,0.04,VWS V13.01,2013-12-19 04:12:00,
2013-12-18 22:17:00,30.7,25.6,28.89,North,0,0.0,0.0,81,0.00,,---,0.04,VWS V13.01,2013-12-19 04:17:00,
2013-12-18 22:22:00,30.7,25.6,28.90,SSW,202,0.0,0.0,81,0.00,,---,0.04,VWS V13.01,2013-12-19 04:22:00,
2013-12-18 22:27:00,30.7,25.6,28.90,North,0,0.0,0.0,81,0.00,,---,0.04,VWS V13.01,2013-12-19 04:27:00,
2013-12-18 22:32:00,30.7,25.6,28.90,North,0,0.0,0.0,81,0.00,,---,0.04,VWS V13.01,2013-12-19 04:32:00,
2013-12-18 22:37:00,30.7,25.6,28.91,SSW,202,0.0,0.0,81,0.00,,---,0.04,VWS V13.01,2013-12-19 04:37:00,
2013-12-18 22:42:00,30.7,25.6,28.91,SSW,202,0.0,0.0,81,0.00,,---,0.04,VWS V13.01,2013-12-19 04:42:00,
2013-12-18 22:47:00,30.7,25.9,28.91,SSW,202,0.0,0.0,82,0.00,,---,0.04,VWS V13.01,2013-12-19 04:47:00,
2013-12-18 22:52:00,30.7,25.9,28.91,SSW,202,0.0,0.0,82,0.00,,---,0.04,VWS V13.01,2013-12-19 04:52:00,
2013-12-18 22:57:00,30.7,25.9,28.92,SSW,202,0.0,0.0,82,0.00,,---,0.04,VWS V13.01,2013-12-19 04:57:00,
2013-12-18 23:01:00,30.7,25.9,28.92,SSW,202,0.0,0.0,82,0.00,,---,0.04,VWS V13.01,2013-12-19 05:01:00,
2013-12-18 23:02:00,30.7,25.9,28.92,SSW,202,0.0,0.0,82,0.00,,---,0.04,VWS V13.01,2013-12-19 05:02:00,
2013-12-18 23:03:00,30.7,25.9,28.92,SSW,202,0.0,0.0,82,0.00,,---,0.04,VWS V13.01,2013-12-19 05:03:00,
2013-12-18 23:04:00,30.7,25.9,28.92,SSW,202,0.0,0.0,82,0.00,,---,0.04,VWS V13.01,2013-12-19 05:04:00,
2013-12-18 23:09:00,30.7,25.9,28.92,SSW,202,0.0,0.0,82,0.00,,---,0.04,VWS V13.01,2013-12-19 05:09:00,
2013-12-18 23:12:00,30.7,26.2,28.92,SSW,202,0.0,0.0,83,0.00,,---,0.04,VWS V13.01,2013-12-19 05:12:00,
2013-12-18 23:17:00,30.7,26.2,28.92,SSW,202,0.0,0.0,83,0.00,,---,0.04,VWS V13.01,2013-12-19 05:17:00,
2013-12-18 23:22:00,30.7,26.2,28.92,SSW,202,0.0,0.0,83,0.00,,---,0.04,VWS V13.01,2013-12-19 05:22:00,
2013-12-18 23:27:00,30.9,26.4,28.92,SSW,202,0.0,0.0,83,0.00,,---,0.04,VWS V13.01,2013-12-19 05:27:00,
2013-12-18 23:32:00,30.9,26.4,28.92,SSW,202,0.0,0.0,83,0.00,,---,0.04,VWS V13.01,2013-12-19 05:32:00,
2013-12-18 23:37:00,31.1,26.5,28.93,SSW,202,0.0,0.0,83,0.00,,---,0.04,VWS V13.01,2013-12-19 05:37:00,
2013-12-18 23:42:00,31.1,26.5,28.93,SSW,202,0.0,0.0,83,0.00,,---,0.04,VWS V13.01,2013-12-19 05:42:00,
2013-12-18 23:47:00,31.2,26.9,28.93,SSW,202,0.0,0.0,84,0.00,,---,0.04,VWS V13.01,2013-12-19 05:47:00,
2013-12-18 23:53:00,31.2,26.9,28.93,SSW,202,0.0,0.0,84,0.00,,---,0.04,VWS V13.01,2013-12-19 05:53:00,
2013-12-18 23:58:00,31.2,26.9,28.93,SSW,202,0.0,0.0,84,0.00,,---,0.04,VWS V13.01,2013-12-19 05:58:00,